SERVIS 2 DEB, 43394

Orbit data source: Space-Track

SERVIS 2 DEB, 43394 is space debris in SSO originally from a launch on Wed, 02 Jun 2010 UTC launched from the Plesetsk Missile And Space Complex (PKMTR). Debris objects in space refer to the collection of defunct objects orbiting the Earth. Examples of debris include non-operational satellites, rocket bodies, and fragments generated from explosions, collisions, or faulty payload assembly.

Loading next visibility...
Identifier
43394, 2010-023D
Orbit
SSO
Country
Flag of CISCIS
Related business
Manufacturer
MELCO
Mission
Spacecraft
Bus & Motor
Unknown
Mass
Unknown
Launch date (UTC)
2010-06-02 (15 years ago)
Launch vehicle
Unknown
Launch site
Plesetsk Missile And Space Complex (PKMTR)
Object type
Payload
Rocket body
Debris
Shape & HBR
Unknown shape, 0.1 m
Radar Cross Section
Small (<0.1 m²)

Expand to show TLE details & history
Last TLE update: 11 hours ago

TLE from 11 hours ago
0 SERVIS 2 DEB
1 43394U 10023D   25287.76301067  .00008683  00000-0  12263-1 0  9993
2 43394 100.5076 296.1391 0020052 202.6430 157.3822 13.56955268 64357
Epoch: 2025-10-14T18:18Z
TLE epoch observation values (Epoch: 2025-10-14T18:18:44.121Z)
Latitude
-0.00008°
Longitude
-2.0915°
Altitude
1,063.294 km
Speed
7.314 km/s
True Right ascension
19h 44m 33s
True Declination
0° 00' 00"
Sunlit
Object was in daylight at epoch
Visualization orbit readout
Latitude
Unknown
Longitude
Unknown
Altitude
Unknown
Speed
Unknown
Apparent Right ascension
Unknown
Apparent Declination
Unknown
Sunlit
N/A
Visualization observer readout
Local Sidereal Time
23:48:48
Azimuth
Unknown
Elevation
Unknown
Doppler factor
Unknown
Orbital elements
Apogee altitude
1,058.996 km
Perigee altitude
1,029.23 km
Semi-major axis
7,422.25 km
Eccentricity
0.00201
Inclination
100.5076°
RAAN
296.1391°
Arg. of periapsis
202.643°
True anomaly
157.47036°
Mean anomaly
157.3822°
Eccentric anomaly
157.4263°
Mean motion
3.39422 °/min
Orbital period
106.06 mins
BSTAR
0.012263
Loading maneuver chart data...
Computing Atmospheric mass density...
Loading historical data...
Loading historical data...
Loading historical data...
Loading historical data...
Loading historical data...
Loading historical data...
Loading historical data...
Other satellites on launch #23 in the year 2010 (2010-06-02 UTC)

Documentation

Showing up to 5 results
|